Other Public Products
Issued by NWS Grand Forks, ND

Home | Current Version | Previous Version | Graphics & Text | Print | Product List | Glossary On
Versions: 1 2 3 4 5 6 7 8 9 10 11 12 13 14 15 16 17 18 19 20 21 22 23 24 25 26 27 28 29 30 31 32 33 34 35 36 37 38 39 40 41 42 43 44 45 46 47 48 49 50
000
FPUS83 KFGF 241310
OPUFGF
PRAIRIE TO PINES WEATHER ROUNDUP
NATIONAL WEATHER SERVICE EASTERN NORTH DAKOTA/GRAND FORKS ND
800 AM CDT WED AUG 24 2016

 **SATELLITE DATA USED TO AUGMENT SKY COVER AT AUTOMATED STATIONS**
 *****  WEATHER ACROSS EASTERN NORTH DAKOTA  *****

CITY           SKY/WX    TMP DP  RH WIND       PRES   REMARKS
GRAND FORKS    MOSUNNY   59  53  80 W9        29.82R
GRAND FORKS AF SUNNY     60  53  75 W8        29.83R
GRAND CITY NWS   N/A     57 N/A N/A W12         N/A
BUXTON           N/A     60  58  92 W7          N/A
DEVILS LAKE    SUNNY     59  52  77 W18       29.88R
FARGO          SUNNY     61  51  70 W10       29.87S
WAHPETON ARPT  SUNNY     55  52  88 W6        29.91S
$$

 *****  WEATHER ACROSS CENTRAL AND WESTERN NORTH DAKOTA  *****

CITY           SKY/WX    TMP DP  RH WIND       PRES   REMARKS
JAMESTOWN      SUNNY     58  51  78 W13       29.93R
BISMARCK       SUNNY     58  50  75 W16       29.99S
MINOT          SUNNY     59  50  72 SW13      29.90F
MINOT AFB      NOT AVBL
GARRISON         N/A     56  51  84 W12       29.95F
WILLISTON      MOCLDY    56  50  80 W9        29.98S
DICKINSON      CLEAR     53  48  83 W17       30.04R
HETTINGER      CLEAR     53  47  79 W16       30.09F
$$

 *****  OTHER OBSERVATIONS NORTHEAST NORTH DAKOTA  *****

CITY           SKY/WX    TMP DP  RH WIND       PRES   REMARKS
WALHALLA       NOT AVBL
LANGDON        CLOUDY    55  52  88 W10       29.85R
CAVALIER       FAIR      59  50  72 W10       29.81R
GRAFTON        FAIR      59  54  82 W15       29.83R
CANDO          NOT AVBL
FORT TOTTEN      N/A     57  52  83 W7        29.95
ROLLA          FAIR      55  50  82 W14G21    29.86S
RUGBY          NOT AVBL
 ***** THE ABOVE OBSERVATIONS ARE NON NWS ARE NOT QUALITY
        CONTROLLED AND MAY MIS-REPORT RAIN FOR SNOW...
$$

 *****  OTHER OBSERVATIONS SOUTHEAST NORTH DAKOTA *****

CITY           SKY/WX    TMP DP  RH WIND       PRES   REMARKS
COOPERSTOWN    NOT AVBL
VALLEY CITY    FAIR      59  55  88 W13G18    29.94R
OAKES            N/A    N/A N/A N/A MISG        N/A
GWINNER        FAIR      61  52  72 W13       29.94R
SHEYENNE NWR     N/A     57  50  78 W7        29.95S
BUFFALO          N/A     56  52  86 W7          N/A
WYNDMERE       NOT AVBL
 ***** THE ABOVE OBSERVATIONS ARE NON NWS ARE NOT QUALITY
       CONTROLLED AND MAY MIS-REPORT RAIN FOR SNOW...
$$

  *****  WEATHER ACROSS NORTHERN MINNESOTA  *****

CITY           SKY/WX    TMP DP  RH WIND       PRES   REMARKS
FLAG ISLAND    CLOUDY    66  63  88 W3        29.73S HAZE
WARROAD        CLOUDY    63  57  82 W10       29.79R
ROSEAU         MOSUNNY   61  55  82 SW5       29.79S
HALLOCK        SUNNY     55  54  94 SW3       29.79R
THF RVR FALLS  SUNNY     59  52  77 W10       29.83R
HALSTAD          N/A     60  52  75 W12         N/A
FOSSTON        SUNNY     57  55  94 SW5       29.85S
BAUDETTE       PTSUNNY   66  63  90 W5        29.76S
WASKISH        MOSUNNY   66  63  88 W13G20    29.79R
CROOKSTON      SUNNY     59  52  77 W9        29.84S
$$
  *****  WEATHER ACROSS CENTRAL AND WEST MINNESOTA  *****

CITY           SKY/WX    TMP DP  RH WIND       PRES   REMARKS
BEMIDJI        SUNNY     62  55  77 W9        29.83R
PARK RAPIDS    SUNNY     64  57  78 W7        29.86R
WADENA         SUNNY     63  57  82 W6        29.86S
DETROIT LAKES  SUNNY     63  52  67 W9        29.89S
MOORHEAD       SUNNY     57  52  82 W5        29.89S
FERGUS FALLS   SUNNY     57  55  94 NW3       29.92R
ELBOW LAKE     FAIR      57  55  91 NW6       29.90S
MORRIS MN      SUNNY     61  55  82 NW8       29.90R
STAPLES        SUNNY     63  59  88 W7        29.85R
WHEATON        NOT AVBL
$$
  *****  WEATHER ELSEWHERE ACROSS MINNESOTA  *****

CITY           SKY/WX    TMP DP  RH WIND       PRES   REMARKS
DULUTH         CLOUDY    66  65  96 W3        29.82S
INTRNTL FALLS  CLOUDY    70  66  87 VRB6      29.75S
ELY            MOSUNNY   64  63  94 S3        29.80F
CLOQUET        CLOUDY    66  64  94 CALM      29.82S
BRAINERD       PTSUNNY   68  66  93 W6        29.83R
HIBBING        CLOUDY    61  61 100 W3        29.80S FOG
ALEXANDRIA     SUNNY     66  62  87 W9        29.90R
SAINT CLOUD    CLOUDY    67  67 100 W3        29.85R
MINNEAPOLIS    MOSUNNY   68  66  93 W3        29.84R
$$

  *****  WEATHER ACROSS SOUTH DAKOTA  *****

CITY           SKY/WX    TMP DP  RH WIND       PRES   REMARKS
SIOUX FALLS    MOSUNNY   64  55  72 CALM      29.97R
BROOKINGS      SUNNY     58  55  90 NW5       29.96R
WATERTOWN      SUNNY     61  53  75 NW10      29.97R
HURON          SUNNY     56  48  74 NW9       29.98S
SISSETON         N/A     63  52  67 NW7       29.92R
ABERDEEN       SUNNY     60  47  61 NW14      29.98S
MITCHELL       SUNNY     56  51  84 N3        29.99R
PIERRE         CLOUDY    57  45  64 SW8       30.07R
MOBRIDGE       MOSUNNY   60  47  61 NW12      30.03R
RAPID CITY     CLOUDY    57  43  59 NW16      30.17R
$$

  *****  SOME WEATHER IN NEARBY STATES *****

CITY           SKY/WX    TMP DP  RH WIND       PRES   REMARKS
GLASGOW MT     CLOUDY    54  44  69 NW26G39   30.10R
GREAT FALLS MT CLOUDY    51  44  77 W8        30.32R
CHEYENNE WY    LGT RAIN  55  45  68 SE12      30.25R
SCOTTSBLUFF NE CLOUDY    58  43  57 NE6       30.18R
OMAHA NE       PTSUNNY   71  65  81 N5        29.92S
DES MOINES IA  MOSUNNY   69  65  86 SW7       29.92R
DAVENPORT IA   CLOUDY    72  71  97 SE10      29.94F
CHICAGO IL     LGT RAIN  71  68  90 SW15G21   30.01R
EAU CLAIRE WI  CLOUDY    67  66  97 S6        29.83R
LA CROSSE WI   CLOUDY    70  32  24 S10       29.86R
$$

  *****  SOME NATIONAL WEATHER *****

CITY           SKY/WX    TMP DP  RH WIND       PRES   REMARKS
LA GUARDIA NY  MOSUNNY   77  60  55 CALM      30.28F
RALEIGH NC     PTSUNNY   75  60  59 SE5       30.33R
ATLANTA GA     PTSUNNY   77  73  87 SE6       30.28S
NEW ORLEANS LA MOSUNNY   87  77  72 N5        30.15R HX  99
OKLAHOMA CITY  PTSUNNY   76  69  79 S17       30.04R
ALBUQUERQUE NM PTCLDY    59  50  72 CALM      30.23R
SALT LAKE CITY CLEAR     63  31  30 SE8       30.13R
LOS ANGELES CA PTCLDY    66  59  78 VRB3      30.02R
BOISE ID       CLEAR     53  38  56 S3        30.14R
SEATTLE WA     PTCLDY    59  54  83 CALM      30.22R
$$

*** WEATHER ACROSS MANITOBA...SASKATCHEWAN AND ONTARIO ***
                ***ONTARIO***

CITY           SKY/WX    TMP DP  RH WIND       PRES   REMARKS
GERALDTON      PTSUNNY   66  63  88 S9        29.81F
THUNDER BAY    CLOUDY    66  64  94 VRB2      29.80S
SIOUX LOOKOUT  LGT RAIN  72  68  88 S7        29.69F
TORONTO        MOSUNNY   73  63  68 S6        30.18F
BIG TROUT LK   CLOUDY    54  48  82 NE5       29.88R
PICKLE LAKE    TSTM      61  59  94 S29G35    29.65F FOG
DRYDEN         PTSUNNY   72  66  83 SW13      29.70F
KENORA         CLOUDY    66  61  82 W12G17    29.73R
$$
                *** MANITOBA***

CITY           SKY/WX    TMP DP  RH WIND       PRES   REMARKS
BRANDON        MOSUNNY   54  52  94 W6        29.80R
DAUPHIN        SUNNY     55  54  94 W6        29.74S
ISLAND LAKE    PTSUNNY   59  52  77 NE8       29.86F
PILOT MOUND      N/A     54  50  87 W8          N/A
THE PAS        LGT RAIN  57  54  88 N8        29.92R
THOMPSON       PTSUNNY   50  48  93 NE6       29.99S
WINNIPEG       MOSUNNY   59  54  82 W12       29.75S
LYNN LAKE      SUNNY     52  46  82 MISG      30.07R
CHURCHILL      MOSUNNY   50  45  81 N13       29.99F
GILLAM         PTSUNNY   50  48  93 N8        30.00S
$$
                ***SASKATCHEWAN***

CITY           SKY/WX    TMP DP  RH WIND       PRES   REMARKS
ESTEVAN        CLOUDY    55  50  82 W17G26    29.90R
KINDERSLEY     CLOUDY    52  46  82 N14       30.16R
LLOYDMINSTER   MOCLDY    50  46  87 NW8       30.19R
PRINCE ALBERT  LGT RAIN  54  52  94 N10G18    30.03R
REGINA         LGT RAIN  54  52  94 NW18G28   29.88R
YORKTON        LGT RAIN  55  54  94 N6        29.79R   C1F1C2F2C3F3C4F4C5F5C6F6C7F7C8F8C9F9CaFaCbFbCcFcCdFdCe!



USA.gov is the U.S. government's official web portal to all federal, state and local government web resources and services.